This is the latest recevied weather packets stored in our database for station/object SV8FES-1. If no packets are shown the sender has not sent any weather packets the latest 1 day(s).
| Time | Temp. | Humidity | Pressure | Rain* | Wind** | Luminosity | Snow |
|---|---|---|---|---|---|---|---|
| 1778077157 | 23.33° C | 46% | 1015.7 hPa | 0 mm | - | 510 W/m² | - |
| 1778076965 | 23.33° C | 47% | 1015.8 hPa | 0 mm | - | 522 W/m² | - |
| 1778076917 | 23.33° C | 47% | 1015.8 hPa | 0 mm | - | 526 W/m² | - |
| 1778076844 | 23.33° C | 48% | 1015.7 hPa | 0 mm | - | 527 W/m² | - |
| 1778076318 | 23.33° C | 46% | 1015.8 hPa | 0 mm | - | 559 W/m² | - |
| 1778076197 | 23.33° C | 45% | 1015.8 hPa | 0 mm | - | 566 W/m² | - |
| 1778075837 | 23.33° C | 44% | 1015.8 hPa | 0 mm | - | 584 W/m² | - |
| 1778075477 | 23.33° C | 48% | 1015.8 hPa | 0 mm | - | 605 W/m² | - |
| 1778075285 | 23.33° C | 46% | 1015.8 hPa | 0 mm | - | 612 W/m² | - |
| 1778075237 | 23.33° C | 47% | 1015.7 hPa | 0 mm | - | 613 W/m² | - |
| 1778074924 | 22.78° C | 48% | 1015.7 hPa | 0 mm | - | 628 W/m² | - |
| 1778074757 | 22.78° C | 47% | 1015.8 hPa | 0 mm | - | 635 W/m² | - |
| 1778074564 | 23.33° C | 46% | 1015.8 hPa | 0 mm | - | 642 W/m² | - |
| 1778074397 | 23.33° C | 46% | 1015.9 hPa | 0 mm | - | 650 W/m² | - |
| 1778074204 | 23.33° C | 46% | 1015.9 hPa | 0 mm | - | 657 W/m² | - |
| 1778074085 | 23.33° C | 46% | 1015.9 hPa | 0 mm | - | 663 W/m² | - |
| 1778074037 | 23.33° C | 47% | 1015.9 hPa | 0 mm | - | 666 W/m² | - |
| 1778073725 | 23.33° C | 47% | 1015.8 hPa | 0 mm | - | 677 W/m² | - |
| 1778073678 | 23.33° C | 47% | 1015.9 hPa | 0 mm | - | 680 W/m² | - |
| 1778073318 | 23.33° C | 46% | 1015.9 hPa | 0 mm | - | 694 W/m² | - |
| 1778073245 | 23.33° C | 48% | 1015.9 hPa | 0 mm | - | 700 W/m² | - |
| 1778073197 | 22.78° C | 47% | 1015.9 hPa | 0 mm | - | 700 W/m² | - |
| 1778072885 | 22.78° C | 48% | 1015.9 hPa | 0 mm | - | 714 W/m² | - |
| 1778072838 | 22.78° C | 48% | 1015.9 hPa | 0 mm | - | 714 W/m² | - |
| 1778072764 | 22.78° C | 48% | 1016 hPa | 0 mm | - | 719 W/m² | - |
* Rain latest hour (hover to see other rain measurements)
** Current wind speed in m/s (hover to see current wind gust speed)